Home   Weather   Zenica   Past weeks
Flag for Bosnia-Herzegovina

Past Weather in Zenica, Bosnia-Herzegovina — Yesterday and Last 2 Weeks

Now
42 °F

Rain. Overcast.


Feels Like: 42 °F
Forecast: 36 / 32 °F
Wind: 1 mph from North

Location: Zenica

Current Time: Dec 10, 2019 at 2:07:06 pm

Latest Report: Dec 10, 2019 at 12:00 pm


Visibility: 6 mi

Pressure: 30.05 "Hg

Humidity: 86%

Dew Point: 38 °F

Location of ZenicaLocation

Past Weather in Zenica — Graph

°F

Zenica Temperature Yesterday

Maximum temperature yesterday: 57 °F (at 2:00 pm)
Minimum temperature yesterday: 35 °F (at 4:00 am)
Average temperature yesterday: 42 °F

High & Low Weather Summary for the Past Weeks

 TemperatureHumidityPressure
High66 °F (Nov 29, 1:00 pm)97% (Dec 10, 6:00 am)30.47 "Hg (Dec 10, 6:00 am)
Low27 °F (Dec 6, 8:00 am)40% (Nov 29, 2:00 pm)29.67 "Hg (Nov 28, 3:00 pm)
Average42 °F82%30.05 "Hg
* Reported Nov 25 12:00 pm — Dec 10 12:00 pm, Zenica. Weather by CustomWeather, © 2019

Note: Actual official high and low records may vary slightly from our data, if they occured in-between our weather recording intervals... More about our weather records

Zenica Weather History for the Previous 24 Hours

Scroll right to see more
 ConditionsComfort  
Time TempWeatherWind HumidityBarometerVisibility
12:00 pm
Tue, Dec 10
42 °FRain. Overcast.1 mph86%30.05 "Hg6 mi
11:00 am42 °FRain. Overcast.2 mph84%30.04 "Hg6 mi
10:00 am42 °FRain. Overcast.1 mph86%30.02 "Hg6 mi
9:00 am42 °FLight rain. Overcast.1 mph84%29.98 "Hg6 mi
8:00 am43 °FLight rain. Overcast.2 mph86%29.94 "Hg6 mi
7:00 am45 °FRain. Overcast.No wind95%29.88 "Hg6 mi
6:00 am45 °FQuite cool.No wind97%29.85 "HgN/A
5:00 am44 °FQuite cool.No wind96%29.83 "HgN/A
4:00 am44 °FQuite cool.1 mph96%29.81 "HgN/A
3:00 am44 °FQuite cool.1 mph95%29.80 "HgN/A
2:00 am44 °FQuite cool.1 mph92%29.79 "HgN/A
1:00 am44 °FQuite cool.1 mph88%29.77 "HgN/A
12:00 am44 °FQuite cool.1 mph89%29.77 "HgN/A
11:00 pm
Mon, Dec 9
45 °FCool.1 mph88%29.76 "HgN/A
5:00 pmN/APassing clouds.N/AN/AN/A2 mi
4:00 pm53 °FCool.1 mph76%29.74 "HgN/A
3:00 pm57 °FCool.1 mph65%29.75 "HgN/A
2:00 pm57 °FPassing clouds.No wind58%29.76 "Hg12 mi
Weather by CustomWeather, © 2019

See weather overview

Advertising